SDM326 UNKL-UIUU

Flight info

Callsign SDM326
Flight time 1h 25m
Altitude 37000
Route ATREG2F ATREG R497 BD W241 IKT A810 KUDAR A806 OSTUN OSTUN5P
Aircraft A319/M-SDE3FGHIRWY/LB1

Departure

Time 2026-04-20 16:55
Airport Krasnoyarsk International Airport (UNKL)

Arrival

Time 2026-04-20 18:21
Airport Baikal International Airport (UIUU)
Time Latitude Longitude Altitude Speed Heading
2026-04-20 16:38 56.17972 92.48437 951 ft 0 kts 22°
2026-04-20 16:44 56.17957 92.48426 950 ft 2 kts 22°
2026-04-20 16:45 56.17942 92.48415 951 ft 2 kts 22°
2026-04-20 16:45 56.17927 92.48404 950 ft 2 kts 23°
2026-04-20 16:45 56.17913 92.48391 950 ft 2 kts 44°
2026-04-20 16:45 56.17903 92.48368 950 ft 2 kts 70°
2026-04-20 16:46 56.17900 92.48344 949 ft 0 kts 102°
2026-04-20 16:46 56.17899 92.48344 949 ft 0 kts 102°
2026-04-20 16:47 56.17896 92.48367 951 ft 4 kts 107°
2026-04-20 16:47 56.17879 92.48428 951 ft 7 kts 124°
2026-04-20 16:48 56.17828 92.48456 951 ft 9 kts 207°
2026-04-20 16:48 56.17771 92.48411 951 ft 9 kts 193°
2026-04-20 16:48 56.17720 92.48471 951 ft 11 kts 117°
2026-04-20 16:48 56.17688 92.48610 949 ft 13 kts 112°
2026-04-20 16:49 56.17647 92.48780 951 ft 16 kts 114°
2026-04-20 16:49 56.17600 92.48977 950 ft 11 kts 114°
2026-04-20 16:49 56.17565 92.49123 951 ft 14 kts 112°
2026-04-20 16:49 56.17524 92.49303 951 ft 17 kts 114°
2026-04-20 16:50 56.17474 92.49510 951 ft 19 kts 112°
2026-04-20 16:50 56.17421 92.49731 951 ft 11 kts 114°
2026-04-20 16:50 56.17398 92.49824 949 ft 11 kts 114°
2026-04-20 16:50 56.17371 92.49934 951 ft 13 kts 114°
2026-04-20 16:51 56.17331 92.50099 951 ft 14 kts 113°
2026-04-20 16:51 56.17291 92.50266 951 ft 16 kts 113°
2026-04-20 16:51 56.17285 92.50291 950 ft 16 kts 113°
2026-04-20 16:51 56.17268 92.50361 949 ft 17 kts 112°
2026-04-20 16:52 56.17218 92.50575 951 ft 20 kts 112°
2026-04-20 16:52 56.17160 92.50816 951 ft 22 kts 113°
2026-04-20 16:52 56.17111 92.51022 950 ft 18 kts 113°
2026-04-20 16:52 56.17060 92.51241 951 ft 20 kts 112°
2026-04-20 16:53 56.17011 92.51442 949 ft 18 kts 114°
2026-04-20 16:53 56.16958 92.51668 951 ft 21 kts 112°
2026-04-20 16:53 56.16901 92.51903 951 ft 17 kts 117°
2026-04-20 16:53 56.16808 92.51991 951 ft 15 kts 160°
2026-04-20 16:54 56.16708 92.52055 952 ft 13 kts 171°
2026-04-20 16:54 56.16664 92.51958 953 ft 8 kts 291°
2026-04-20 16:54 56.16668 92.51939 952 ft 4 kts 291°
2026-04-20 16:54 56.16765 92.51533 952 ft 76 kts 293°
2026-04-20 16:55 56.17070 92.50247 948 ft 145 kts 293°
2026-04-20 16:55 56.17523 92.48360 1251 ft 170 kts 294°
2026-04-20 16:55 56.17991 92.46421 2076 ft 169 kts 294°
2026-04-20 16:55 56.18453 92.44478 2838 ft 172 kts 293°
2026-04-20 16:56 56.18950 92.42374 3286 ft 194 kts 293°
2026-04-20 16:56 56.19363 92.39952 3681 ft 216 kts 273°
2026-04-20 16:56 56.18955 92.37257 4149 ft 237 kts 234°
2026-04-20 16:56 56.17595 92.35465 4814 ft 254 kts 195°
2026-04-20 16:57 56.15831 92.35558 5774 ft 262 kts 160°
2026-04-20 16:57 56.14332 92.37447 6751 ft 271 kts 134°
2026-04-20 16:57 56.13166 92.40176 7640 ft 280 kts 124°
2026-04-20 16:57 56.12135 92.43198 8491 ft 290 kts 121°
2026-04-20 16:58 56.11097 92.46381 9338 ft 300 kts 122°
2026-04-20 16:58 56.10000 92.49633 10151 ft 310 kts 123°
2026-04-20 16:58 56.09226 92.51834 10522 ft 323 kts 124°
2026-04-20 16:58 56.07945 92.55325 10894 ft 346 kts 126°
2026-04-20 16:59 56.06563 92.58956 11495 ft 359 kts 126°
2026-04-20 16:59 56.04648 92.63904 12496 ft 370 kts 126°
2026-04-20 16:59 56.03163 92.67709 13260 ft 377 kts 127°
2026-04-20 16:59 56.01642 92.71587 13998 ft 385 kts 127°
2026-04-20 17:00 55.99048 92.78169 15127 ft 394 kts 127°
2026-04-20 17:00 55.97463 92.82199 15818 ft 400 kts 127°
2026-04-20 17:00 55.95855 92.86300 16503 ft 407 kts 126°
2026-04-20 17:01 55.94221 92.90472 17175 ft 413 kts 126°
2026-04-20 17:01 55.92562 92.94705 17858 ft 418 kts 127°
2026-04-20 17:01 55.90880 92.98973 18517 ft 424 kts 127°
2026-04-20 17:01 55.89165 93.03311 19011 ft 429 kts 127°
2026-04-20 17:02 55.87438 93.07672 19173 ft 431 kts 127°
2026-04-20 17:02 55.85708 93.12037 19215 ft 431 kts 127°
2026-04-20 17:02 55.83979 93.16389 19221 ft 432 kts 127°
2026-04-20 17:02 55.82243 93.20751 19760 ft 435 kts 127°
2026-04-20 17:03 55.80486 93.25166 20401 ft 439 kts 127°
2026-04-20 17:03 55.78715 93.29607 21048 ft 438 kts 127°
2026-04-20 17:03 55.76931 93.34062 21591 ft 445 kts 127°
2026-04-20 17:03 55.75114 93.38588 22173 ft 452 kts 126°
2026-04-20 17:04 55.73491 93.43321 22646 ft 458 kts 119°
2026-04-20 17:04 55.71935 93.48269 23295 ft 461 kts 119°
2026-04-20 17:04 55.70365 93.53251 23877 ft 465 kts 119°
2026-04-20 17:04 55.68773 93.58283 24344 ft 469 kts 119°
2026-04-20 17:05 55.67166 93.63344 24813 ft 473 kts 119°
2026-04-20 17:05 55.65540 93.68444 25263 ft 477 kts 119°
2026-04-20 17:05 55.63901 93.73570 25716 ft 481 kts 119°
2026-04-20 17:05 55.62244 93.78736 26157 ft 485 kts 119°
2026-04-20 17:06 55.60570 93.83941 26608 ft 489 kts 119°
2026-04-20 17:06 55.58882 93.89187 27040 ft 492 kts 119°
2026-04-20 17:06 55.57178 93.94480 27494 ft 497 kts 118°
2026-04-20 17:06 55.55479 93.99750 27913 ft 500 kts 118°
2026-04-20 17:07 55.53744 94.05116 28347 ft 504 kts 118°
2026-04-20 17:07 55.51997 94.10507 28771 ft 508 kts 118°
2026-04-20 17:07 55.50236 94.15933 29187 ft 511 kts 118°
2026-04-20 17:07 55.48456 94.21399 29598 ft 515 kts 118°
2026-04-20 17:08 55.46660 94.26893 30016 ft 518 kts 118°
2026-04-20 17:08 55.44850 94.32409 30400 ft 521 kts 118°
2026-04-20 17:08 55.43028 94.37954 30710 ft 524 kts 118°
2026-04-20 17:08 55.41198 94.43514 31051 ft 526 kts 118°
2026-04-20 17:09 55.39361 94.49090 31450 ft 528 kts 118°
2026-04-20 17:09 55.37539 94.54611 31762 ft 530 kts 118°
2026-04-20 17:09 55.35679 94.60222 32097 ft 532 kts 118°
2026-04-20 17:09 55.33808 94.65843 32556 ft 531 kts 119°
2026-04-20 17:10 55.31941 94.71446 32971 ft 531 kts 118°
2026-04-20 17:10 55.30074 94.77049 33390 ft 532 kts 118°
2026-04-20 17:10 55.28206 94.82646 33809 ft 532 kts 119°
2026-04-20 17:10 55.26333 94.88266 34232 ft 531 kts 118°
2026-04-20 17:11 55.24559 94.93941 34593 ft 530 kts 115°
2026-04-20 17:11 55.22905 94.99723 34996 ft 528 kts 113°
2026-04-20 17:11 55.21346 95.05538 35420 ft 525 kts 112°
2026-04-20 17:11 55.19831 95.11336 35826 ft 522 kts 112°
2026-04-20 17:12 55.18334 95.17022 36217 ft 520 kts 113°
2026-04-20 17:12 55.16793 95.22726 36606 ft 517 kts 114°
2026-04-20 17:12 55.15226 95.28370 36980 ft 515 kts 114°
2026-04-20 17:12 55.13636 95.33992 37214 ft 514 kts 115°
2026-04-20 17:13 55.12040 95.39566 37281 ft 510 kts 115°
2026-04-20 17:13 55.08890 95.50536 37293 ft 507 kts 115°
2026-04-20 17:14 55.05747 95.61557 37288 ft 506 kts 115°
2026-04-20 17:14 55.02603 95.72550 37285 ft 506 kts 115°
2026-04-20 17:15 54.99446 95.83522 37274 ft 506 kts 115°
2026-04-20 17:15 54.96289 95.94469 37281 ft 506 kts 115°
2026-04-20 17:16 54.93117 96.05423 37311 ft 506 kts 115°
2026-04-20 17:16 54.89926 96.16345 37294 ft 506 kts 115°
2026-04-20 17:17 54.86724 96.27242 37289 ft 506 kts 116°
2026-04-20 17:17 54.83541 96.38070 37251 ft 506 kts 115°
2026-04-20 17:18 54.80331 96.48934 37267 ft 506 kts 116°
2026-04-20 17:18 54.77107 96.59769 37296 ft 506 kts 116°
2026-04-20 17:19 54.73859 96.70595 37282 ft 506 kts 116°
2026-04-20 17:19 54.70531 96.81327 37287 ft 506 kts 117°
2026-04-20 17:20 54.67158 96.92004 37295 ft 506 kts 117°
2026-04-20 17:20 54.63783 97.02674 37320 ft 506 kts 117°
2026-04-20 17:21 54.60419 97.13332 37323 ft 506 kts 117°
2026-04-20 17:21 54.57084 97.23909 37304 ft 505 kts 117°
2026-04-20 17:22 54.53694 97.34590 37301 ft 505 kts 118°
2026-04-20 17:22 54.50327 97.45114 37281 ft 505 kts 118°
2026-04-20 17:23 54.46929 97.55682 37306 ft 504 kts 118°
2026-04-20 17:23 54.43529 97.66216 37308 ft 504 kts 118°
2026-04-20 17:24 54.40125 97.76721 37295 ft 503 kts 118°
2026-04-20 17:24 54.36710 97.87215 37302 ft 504 kts 118°
2026-04-20 17:25 54.33298 97.97634 37297 ft 504 kts 118°
2026-04-20 17:25 54.29878 98.08117 37315 ft 503 kts 118°
2026-04-20 17:26 54.26465 98.18573 37305 ft 503 kts 118°
2026-04-20 17:26 54.23040 98.29002 37288 ft 503 kts 118°
2026-04-20 17:27 54.19595 98.39409 37253 ft 502 kts 118°
2026-04-20 17:27 54.16152 98.49798 37291 ft 502 kts 118°
2026-04-20 17:28 54.12732 98.60096 37280 ft 502 kts 119°
2026-04-20 17:28 54.09272 98.70435 37275 ft 502 kts 119°
2026-04-20 17:29 54.05798 98.80751 37272 ft 502 kts 119°
2026-04-20 17:29 54.02315 98.91059 37279 ft 502 kts 119°
2026-04-20 17:30 53.98856 99.01264 37280 ft 502 kts 119°
2026-04-20 17:30 53.95372 99.11525 37278 ft 501 kts 119°
2026-04-20 17:31 53.91872 99.21766 37274 ft 501 kts 120°
2026-04-20 17:31 53.88361 99.31981 37232 ft 501 kts 120°
2026-04-20 17:32 53.84855 99.42174 37244 ft 501 kts 120°
2026-04-20 17:32 53.81333 99.52361 37283 ft 501 kts 120°
2026-04-20 17:33 53.77795 99.62535 37280 ft 501 kts 120°
2026-04-20 17:33 53.74249 99.72681 37273 ft 501 kts 120°
2026-04-20 17:34 53.70700 99.82834 37278 ft 501 kts 120°
2026-04-20 17:34 53.67145 99.92956 37276 ft 501 kts 120°
2026-04-20 17:35 53.63572 100.03052 37280 ft 501 kts 120°
2026-04-20 17:35 53.60022 100.13070 37262 ft 500 kts 120°
2026-04-20 17:36 53.56452 100.23136 37262 ft 501 kts 120°
2026-04-20 17:36 53.52854 100.33178 37264 ft 501 kts 121°
2026-04-20 17:37 53.49248 100.43187 37289 ft 500 kts 121°
2026-04-20 17:37 53.45642 100.53180 37279 ft 500 kts 121°
2026-04-20 17:38 53.42040 100.63148 37277 ft 500 kts 121°
2026-04-20 17:38 53.38430 100.73096 37275 ft 499 kts 121°
2026-04-20 17:39 53.34812 100.83026 37279 ft 499 kts 121°
2026-04-20 17:39 53.31216 100.92869 37288 ft 499 kts 121°
2026-04-20 17:40 53.27583 101.02745 37292 ft 498 kts 121°
2026-04-20 17:40 53.23950 101.12583 37295 ft 498 kts 121°
2026-04-20 17:41 53.20306 101.22409 37258 ft 498 kts 122°
2026-04-20 17:41 53.16657 101.32224 37278 ft 497 kts 122°
2026-04-20 17:42 53.13006 101.42011 37288 ft 497 kts 122°
2026-04-20 17:42 53.09345 101.51786 37290 ft 496 kts 122°
2026-04-20 17:43 53.05711 101.61458 37289 ft 496 kts 122°
2026-04-20 17:43 53.02040 101.71164 37283 ft 496 kts 122°
2026-04-20 17:44 52.98360 101.80867 37292 ft 496 kts 122°
2026-04-20 17:44 52.94671 101.90547 37284 ft 495 kts 123°
2026-04-20 17:45 52.90975 102.00189 37282 ft 495 kts 123°
2026-04-20 17:45 52.87289 102.09814 37236 ft 495 kts 123°
2026-04-20 17:46 52.83593 102.19422 37279 ft 495 kts 123°
2026-04-20 17:46 52.79903 102.28966 37275 ft 495 kts 123°
2026-04-20 17:47 52.76190 102.38529 37269 ft 495 kts 123°
2026-04-20 17:47 52.72464 102.48093 37253 ft 495 kts 123°
2026-04-20 17:48 52.69361 102.56039 37255 ft 495 kts 123°
2026-04-20 17:48 52.65625 102.65579 37258 ft 495 kts 123°
2026-04-20 17:49 52.61886 102.75090 37246 ft 495 kts 124°
2026-04-20 17:49 52.58133 102.84587 37242 ft 495 kts 124°
2026-04-20 17:50 52.54370 102.94067 37232 ft 495 kts 124°
2026-04-20 17:50 52.50606 103.03523 37214 ft 495 kts 124°
2026-04-20 17:51 52.46826 103.12962 37218 ft 495 kts 124°
2026-04-20 17:51 52.43809 103.22987 37210 ft 494 kts 106°
2026-04-20 17:52 52.42173 103.33904 37209 ft 493 kts 101°
2026-04-20 17:52 52.40584 103.44827 37200 ft 493 kts 102°
2026-04-20 17:53 52.38971 103.55753 37205 ft 493 kts 102°
2026-04-20 17:53 52.37359 103.66663 37195 ft 493 kts 102°
2026-04-20 17:54 52.35736 103.77590 37194 ft 494 kts 102°
2026-04-20 17:54 52.34111 103.88501 37184 ft 494 kts 102°
2026-04-20 17:55 52.32469 103.99414 37184 ft 494 kts 102°
2026-04-20 17:55 52.30828 104.10245 37174 ft 494 kts 102°
2026-04-20 17:56 52.29162 104.21150 37169 ft 494 kts 103°
2026-04-20 17:56 52.27479 104.32060 37170 ft 495 kts 103°
2026-04-20 17:57 52.26074 104.42987 37170 ft 492 kts 92°
2026-04-20 17:57 52.26156 104.54069 37167 ft 489 kts 83°
2026-04-20 17:57 52.26320 104.59610 36926 ft 489 kts 84°
2026-04-20 17:58 52.26476 104.65161 36672 ft 489 kts 84°
2026-04-20 17:58 52.26627 104.70722 36419 ft 489 kts 84°
2026-04-20 17:58 52.26774 104.76261 36170 ft 489 kts 84°
2026-04-20 17:58 52.26919 104.81818 35924 ft 490 kts 84°
2026-04-20 17:59 52.27061 104.87373 35677 ft 490 kts 84°
2026-04-20 17:59 52.27203 104.92948 35440 ft 491 kts 84°
2026-04-20 17:59 52.27341 104.98517 35221 ft 491 kts 84°
2026-04-20 17:59 52.27478 105.04096 34985 ft 491 kts 84°
2026-04-20 18:00 52.27614 105.09678 34745 ft 490 kts 84°
2026-04-20 18:00 52.27748 105.15234 34550 ft 489 kts 84°
2026-04-20 18:00 52.27877 105.20772 34324 ft 487 kts 85°
2026-04-20 18:00 52.27999 105.26276 34059 ft 483 kts 85°
2026-04-20 18:01 52.28116 105.31741 33532 ft 479 kts 84°
2026-04-20 18:01 52.28233 105.37162 33004 ft 476 kts 84°
2026-04-20 18:01 52.28348 105.42548 32481 ft 473 kts 84°
2026-04-20 18:01 52.28459 105.47897 31962 ft 470 kts 84°
2026-04-20 18:02 52.28566 105.53164 31454 ft 468 kts 83°
2026-04-20 18:02 52.28673 105.58455 30940 ft 465 kts 83°
2026-04-20 18:02 52.28778 105.63748 30436 ft 464 kts 83°
2026-04-20 18:02 52.28877 105.68994 29891 ft 462 kts 83°
2026-04-20 18:03 52.28970 105.74214 29402 ft 457 kts 83°
2026-04-20 18:03 52.29057 105.79378 28928 ft 453 kts 83°
2026-04-20 18:03 52.29141 105.84506 28464 ft 449 kts 83°
2026-04-20 18:03 52.29224 105.89604 27988 ft 447 kts 83°
2026-04-20 18:04 52.29307 105.94676 27464 ft 446 kts 83°
2026-04-20 18:04 52.29390 105.99681 26954 ft 445 kts 83°
2026-04-20 18:04 52.29472 106.04728 26460 ft 444 kts 83°
2026-04-20 18:04 52.29552 106.09772 25968 ft 443 kts 83°
2026-04-20 18:05 52.29698 106.19786 25000 ft 439 kts 83°
2026-04-20 18:05 52.29763 106.24789 24520 ft 437 kts 83°
2026-04-20 18:05 52.29824 106.29740 24055 ft 435 kts 83°
2026-04-20 18:06 52.29882 106.34664 23561 ft 433 kts 83°
2026-04-20 18:06 52.29939 106.39575 23017 ft 431 kts 84°
2026-04-20 18:06 52.29679 106.44473 22472 ft 436 kts 98°
2026-04-20 18:06 52.28805 106.49211 21951 ft 437 kts 112°
2026-04-20 18:07 52.27359 106.53565 21465 ft 435 kts 126°
2026-04-20 18:07 52.25491 106.57422 20958 ft 431 kts 131°
2026-04-20 18:07 52.23583 106.61188 20447 ft 429 kts 131°
2026-04-20 18:07 52.21709 106.64888 19963 ft 427 kts 131°
2026-04-20 18:08 52.19821 106.68612 19480 ft 425 kts 131°
2026-04-20 18:08 52.17945 106.72315 18996 ft 423 kts 131°
2026-04-20 18:08 52.16069 106.76018 18480 ft 423 kts 131°
2026-04-20 18:08 52.14198 106.79703 17900 ft 421 kts 131°
2026-04-20 18:09 52.12324 106.83376 17344 ft 420 kts 131°
2026-04-20 18:09 52.10457 106.87024 16791 ft 418 kts 132°
2026-04-20 18:09 52.08588 106.90644 16261 ft 417 kts 132°
2026-04-20 18:09 52.06718 106.94230 15715 ft 415 kts 133°
2026-04-20 18:10 52.04960 106.97960 15200 ft 415 kts 123°
2026-04-20 18:10 52.03693 107.02155 14692 ft 413 kts 108°
2026-04-20 18:10 52.03002 107.06644 14184 ft 408 kts 95°
2026-04-20 18:10 52.02645 107.11207 13629 ft 405 kts 94°
2026-04-20 18:11 52.02292 107.15685 13076 ft 404 kts 94°
2026-04-20 18:11 52.01932 107.20170 12529 ft 401 kts 93°
2026-04-20 18:11 52.01572 107.24645 11987 ft 398 kts 94°
2026-04-20 18:11 52.01155 107.29069 11434 ft 394 kts 96°
2026-04-20 18:12 52.00644 107.33411 10907 ft 390 kts 98°
2026-04-20 18:12 52.00080 107.37686 10484 ft 384 kts 98°
2026-04-20 18:12 51.99501 107.41888 10097 ft 377 kts 98°
2026-04-20 18:12 51.98935 107.46002 9654 ft 369 kts 98°
2026-04-20 18:13 51.98392 107.50021 9206 ft 361 kts 98°
2026-04-20 18:13 51.97869 107.53976 8764 ft 355 kts 98°
2026-04-20 18:13 51.97367 107.57860 8326 ft 350 kts 98°
2026-04-20 18:13 51.96878 107.61673 7900 ft 344 kts 98°
2026-04-20 18:14 51.96391 107.65481 7477 ft 338 kts 98°
2026-04-20 18:14 51.95916 107.69128 7070 ft 332 kts 101°
2026-04-20 18:14 51.94995 107.72553 6778 ft 325 kts 124°
2026-04-20 18:14 51.93446 107.74986 6491 ft 307 kts 148°
2026-04-20 18:15 51.91541 107.76303 6188 ft 288 kts 166°
2026-04-20 18:15 51.89662 107.77164 5876 ft 275 kts 166°
2026-04-20 18:15 51.87845 107.77841 5547 ft 258 kts 181°
2026-04-20 18:15 51.86203 107.77192 5239 ft 236 kts 217°
2026-04-20 18:16 51.85134 107.75371 4916 ft 217 kts 249°
2026-04-20 18:16 51.84722 107.73125 4571 ft 205 kts 264°
2026-04-20 18:16 51.84441 107.70885 4265 ft 201 kts 263°
2026-04-20 18:16 51.84164 107.68706 4040 ft 192 kts 263°
2026-04-20 18:17 51.83903 107.66667 4049 ft 183 kts 263°
2026-04-20 18:17 51.83648 107.64682 4004 ft 174 kts 263°
2026-04-20 18:17 51.83413 107.62869 3961 ft 156 kts 264°
2026-04-20 18:17 51.83207 107.61280 3804 ft 136 kts 264°
2026-04-20 18:18 51.83021 107.59831 3621 ft 128 kts 264°
2026-04-20 18:18 51.82846 107.58450 3421 ft 127 kts 264°
2026-04-20 18:18 51.82655 107.57069 3163 ft 125 kts 261°
2026-04-20 18:18 51.82479 107.55700 2976 ft 125 kts 261°
2026-04-20 18:19 51.82285 107.54328 2784 ft 125 kts 262°
2026-04-20 18:19 51.82126 107.52953 2555 ft 125 kts 263°
2026-04-20 18:19 51.81954 107.51570 2319 ft 126 kts 261°
2026-04-20 18:19 51.81770 107.50182 2132 ft 127 kts 261°
2026-04-20 18:20 51.81590 107.48782 1969 ft 128 kts 261°
2026-04-20 18:20 51.81412 107.47383 1797 ft 127 kts 259°
2026-04-20 18:20 51.81234 107.45989 1689 ft 126 kts 260°
2026-04-20 18:20 51.81076 107.44781 1685 ft 87 kts 258°
2026-04-20 18:21 51.80986 107.44095 1684 ft 43 kts 258°
2026-04-20 18:21 51.80929 107.43657 1681 ft 39 kts 258°
2026-04-20 18:21 51.80875 107.43235 1685 ft 37 kts 258°
2026-04-20 18:21 51.80822 107.42837 1691 ft 35 kts 258°
2026-04-20 18:22 51.80774 107.42454 1687 ft 34 kts 258°
2026-04-20 18:22 51.80721 107.42080 1687 ft 34 kts 258°
2026-04-20 18:22 51.80687 107.41760 1681 ft 15 kts 279°
2026-04-20 18:22 51.80660 107.41723 1685 ft 1 kts 98°
2026-04-20 18:23 51.80678 107.41788 1682 ft 13 kts 64°
2026-04-20 18:23 51.80708 107.41983 1682 ft 21 kts 79°
2026-04-20 18:23 51.80741 107.42237 1689 ft 26 kts 78°
2026-04-20 18:23 51.80772 107.42474 1689 ft 22 kts 78°
2026-04-20 18:24 51.80806 107.42746 1687 ft 27 kts 78°
2026-04-20 18:24 51.80849 107.43076 1686 ft 33 kts 78°
2026-04-20 18:24 51.80893 107.43431 1681 ft 29 kts 78°
2026-04-20 18:24 51.80929 107.43674 1681 ft 18 kts 77°
2026-04-20 18:25 51.80958 107.43894 1688 ft 23 kts 79°
2026-04-20 18:25 51.80989 107.44149 1686 ft 16 kts 85°
2026-04-20 18:25 51.80926 107.44234 1686 ft 14 kts 170°
2026-04-20 18:25 51.80830 107.44267 1691 ft 15 kts 170°
2026-04-20 18:26 51.80715 107.44306 1682 ft 19 kts 167°
2026-04-20 18:26 51.80611 107.44312 1682 ft 13 kts 175°
2026-04-20 18:26 51.80577 107.44325 1682 ft 0 kts 169°